Regional Weather Roundup
Issued by NWS Sioux Falls, SD

Home | Current Version | Previous Version | Text Only | Print | Product List | Glossary On
Versions: 1 2 3 4 5 6 7 8 9 10 11 12 13 14 15 16 17 18 19 20 21 22 23 24 25 26 27 28 29 30 31 32 33 34 35 36 37 38 39 40 41 42 43 44 45 46 47 48 49 50
000
ASUS43 KFSD 011310
RWRFSD

WEATHER ROUNDUP FOR SE SOUTH DAKOTA/SW MINNESOTA/NW IOWA
NATIONAL WEATHER SERVICE SIOUX FALLS SD
700 AM CST SUN MAR 01 2015

NOTE: "FAIR" INDICATES FEW OR NO CLOUDS BELOW 12,000 FEET WITH NO
SIGNIFICANT WEATHER AND OR OBSTRUCTIONS TO VISIBILITY.


SDZ038>040-050-052>070-011400-
SOUTHEAST SOUTH DAKOTA

CITY           SKY/WX    TMP DP  RH WIND       PRES   REMARKS
CHAMBERLAIN    CLOUDY    16   8  71 SW6       30.29S WCI   7
HURON          MOCLDY    10   4  76 SW5       30.29S WCI   2
MADISON        CLOUDY     7   7 100 W6        30.26R WCI  -3
MITCHELL       CLOUDY    15   9  76 SW6       30.32R WCI   6
SIOUX FALLS    MOCLDY    12   8  84 W3        30.29R
WINNER         CLOUDY    19  12  74 SW9       30.29R WCI   8
YANKTON        MOCLDY    16  10  79 W7        30.34R WCI   6
$$

MNZ071-072-080-081-089-090-097-098-011400-
SOUTHWEST MINNESOTA

CITY           SKY/WX    TMP DP  RH WIND       PRES   REMARKS
FAIRMONT       MOCLDY    12   9  85 W8        30.25S WCI   1
JACKSON        CLOUDY    14  10  85 W6        30.25  WCI   5
LUVERNE        MOCLDY    14  10  85 W7        30.29R WCI   4
MARSHALL       MOCLDY     7   0  72 W7        30.27S WCI  -5
MONTEVIDEO     PTCLDY     7   1  78 NW5       30.27S WCI  -2
PIPESTONE      MOCLDY     9   5  85 W3        30.24R
REDWOOD FALLS  CLEAR      7   1  76 W8        30.26F WCI  -6
TRACY          PTCLDY    11   4  74 W5        30.26R WCI   3
WINDOM         MOCLDY    12  10  92 W3        30.25R
WORTHINGTON    CLOUDY    23   7  50 W8        30.27R WCI  14
$$

IAZ001>003-012>014-020>022-031-032-NEZ013-014-SDZ071-011400-
NORTHWEST IOWA

CITY           SKY/WX    TMP DP  RH WIND       PRES   REMARKS
CHEROKEE       MOCLDY    13  12  96 SW6       30.30S WCI   4
DENISON        PTCLDY    16  14  93 SW6       30.30R WCI   7
ESTHERVILLE    PTCLDY    11   8  88 W8        30.26R WCI  -1
LE MARS        CLOUDY     9   7  92 CALM      30.32R
ORANGE CITY    PTCLDY    10   9  92 W3        30.29R
SHELDON        CLOUDY    10   9  92 W5        30.28R WCI   2
SIOUX CITY     PTCLDY    14  10  84 W3        30.33R
SPENCER        PTCLDY    12   7  80 W12       30.28R WCI  -2
STORM LAKE     MOCLDY    14  10  85 W10       30.29R WCI   1
$$

ABBREVIATIONS USED IN REMARKS
   TC - TEMPERATURE IN CELSIUS
  WCI - WIND CHILL INDEX
   HX - HEAT INDEX
  VSB - VISIBILITY



USA.gov is the U.S. government's official web portal to all federal, state and local government web resources and services.